Location: Newark
(16.3678°N, 77.8722°E)
Time: 19:21:07
(UTC+00:00)

Vanguard 1 Rocket - Visible Passes

Search period start: 07 December 2019 00:00
Search period end: 17 December 2019 00:00
Orbit: 650 x 4226 km, 34.3° (Epoch: 06 December)

Date Brightness Start Highest point End Pass type
(mag) Time Alt. Az. Time Alt. Az. Time Alt. Az.
07 Dec 7.2 00:11:35 18° WNW 00:14:39 49° SSW 00:19:53 10° SE visible
07 Dec 10.3 12:45:26 10° SW 13:10:04 54° SE 13:23:04 19° ENE visible
07 Dec 9.5 15:19:12 10° WSW 15:40:21 70° NW 15:40:21 70° NW visible
07 Dec 7.1 23:04:34 57° E 23:04:34 57° E 23:08:29 10° ESE visible
08 Dec 9.5 14:02:32 10° SW 14:27:14 87° SE 14:33:18 49° ENE visible
08 Dec 10.5 16:40:25 10° W 16:50:36 31° WNW 16:50:36 31° WNW visible
09 Dec 8.1 00:14:51 14° W 00:17:48 28° SSW 00:22:13 10° SSE visible
09 Dec 10.2 12:47:09 10° SW 13:12:52 66° SE 13:26:15 20° ENE visible
09 Dec 9.6 15:22:15 10° WSW 15:43:33 60° NNW 15:43:33 60° NNW visible
09 Dec 7.1 23:07:49 55° SSE 23:07:49 55° SSE 23:11:33 10° SE visible
10 Dec 9.6 14:05:00 10° WSW 14:29:57 81° NNW 14:36:28 47° NE visible
10 Dec 10.6 16:44:13 10° W 16:53:46 28° WNW 16:53:46 28° WNW visible
11 Dec 8.8 00:18:18 10° WSW 00:20:57 15° SSW 00:23:52 10° S visible
11 Dec 10.3 12:49:09 10° SW 13:15:31 78° SE 13:29:23 20° ENE visible
11 Dec 9.8 15:25:36 10° W 15:46:34 52° NNW 15:46:40 52° NNW visible
11 Dec 7.8 23:11:05 33° S 23:11:05 33° S 23:14:16 10° SSE visible
12 Dec 9.8 14:07:47 10° WSW 14:32:41 70° NNW 14:39:34 44° NE visible
12 Dec 10.7 16:48:07 10° WNW 16:56:52 25° WNW 16:56:52 25° WNW visible
13 Dec 10.3 12:51:27 10° SW 13:18:08 90° SE 13:32:27 20° ENE visible
13 Dec 10.0 15:29:13 10° W 15:49:40 46° NNW 15:49:44 46° NNW visible
13 Dec 8.6 23:14:20 19° SSW 23:14:20 19° SSW 23:16:31 10° SSE visible
14 Dec 9.9 14:10:53 10° WSW 14:35:31 61° NNW 14:42:36 41° NNE visible
14 Dec 10.8 16:52:00 10° WNW 16:59:54 23° NW 16:59:54 23° NW visible
15 Dec 10.4 12:54:02 10° WSW 13:20:44 80° NNW 13:35:27 20° NE visible
15 Dec 10.1 15:33:01 10° W 15:52:44 42° NNW 15:52:44 42° NNW visible
15 Dec 9.2 23:17:34 10° SSW 23:17:34 10° SSW 23:17:42 10° SSW visible
16 Dec 10.0 14:14:16 10° W 14:38:30 54° NNW 14:45:35 38° NNE visible
16 Dec 10.9 16:55:44 10° WNW 17:02:52 22° NW 17:02:52 22° NW visible
